Content
SEND FEEDBACK

Daily
Averages
Monthly
Summary
United States of America

NEW YORK - CENTRAL PARK, NEW YORK


Home > North America > United States > New York
Elevation: 4 meters     Latitude: 40 47N     Longitude: 073 58W

WEATHER
 
SELECT A DAY
Number of Records: 148,413;   Date Range: 11/1/95 - 9/21/14
 
SHARE

PRINT THIS DATA

[ ← Previous Day ]
WEATHER ALMANAC - 13 JULY, 2013
[ Next Day → ]
[ °F ]   °C
Weather ElementAverageHighLow
Temperature23 °C26.7 °C (1:51 pm)19.4 °C (1:51 am)
Dewpoint21.1 °C22.2 °C (11:51 am)18.9 °C (12:29 am)
Humidity88.6 %97 % (1:51 am)74 % (1:51 pm)
Barometer1023.7 hPa1026.4 hPa (10:36 pm)1020 hPa (12:51 am)
Wind Speed8.7 km/h18.5 km/h (1:51 pm)
Weather ElementAverage
Visibility8.7 km
Wind DirectionNE (40.2 °)

Weather ElementTotal
Precipitation4.32 mm
Cooling Degree Days4.7 (Base 18.3)
Growing Degree Days13.1 (Base 10)
Averaged from 47 records on 13 July, 2013
WEATHER CONDITIONS BREAKOUT
WIND DIRECTION BREAKOUT
WEATHER BY HOUR - 13 JULY, 2013
[ °F ]   °C
Local TimeTemperatureDewpointHumidityBarometerVisibilityWind DirectionWind SpeedGust SpeedPrecipitationEventsConditions
12:29 AM20 °C18.9 °C93 %1020.7 hPa6.4 kmVariable9.3 km/h1.02 mmRainLight Rain
12:51 AM20 °C18.9 °C93 %1020 hPa6.4 kmENE (60°)16.7 km/h1.02 mmOvercast
1:51 AM19.4 °C18.9 °C97 %1020.3 hPa6.4 kmVariable11.1 km/h0.25 mmRainLight Rain
2:25 AM19.4 °C18.9 °C97 %1021 hPa3.2 kmENE (60°)13 km/h0 mmOvercast
2:51 AM20 °C18.9 °C93 %1020 hPa4 kmEast (90°)14.8 km/h0 mmOvercast
3:51 AM20 °C19.4 °C96 %1020.3 hPa3.2 kmENE (60°)14.8 km/hOvercast
4:11 AM20 °C19.4 °C96 %1021.3 hPa4 kmVariable9.3 km/h0 mmOvercast
4:43 AM20.6 °C19.4 °C93 %1021.7 hPa4.8 kmENE (70°)13 km/h0.25 mmRainLight Rain
4:51 AM20.6 °C19.4 °C93 %1021 hPa4 kmEast (80°)13 km/h0.25 mmOvercast
5:46 AM21 °C20 °C94 %1022 hPa6.4 kmEast (80°)11.1 km/h0.25 mmOvercast
5:51 AM20.6 °C20 °C96 %1021.3 hPa6.4 kmENE (70°)14.8 km/h0.25 mmOvercast
6:26 AM20.6 °C20 °C96 %1022.7 hPa2.4 kmEast (80°)13 km/hOvercast
6:51 AM20.6 °C20 °C96 %1022 hPa2.4 kmENE (70°)14.8 km/hOvercast
7:43 AM20.6 °C20 °C96 %1023.4 hPa4 kmVariable9.3 km/hOvercast
7:51 AM21.1 °C20 °C93 %1022.7 hPa4.8 kmVariable9.3 km/hOvercast
8:20 AM21.1 °C20 °C93 %1024 hPa2.9 kmEast (80°)9.3 km/h0 mmRainLight Rain
8:31 AM21.1 °C20.6 °C97 %1024 hPa4.8 kmVariable9.3 km/h0.51 mmRainLight Rain
8:51 AM21.7 °C20.6 °C93 %1023.7 hPa4 kmVariable9.3 km/h0.51 mmOvercast
9:51 AM22.2 °C21.1 °C93 %1023.7 hPa4 kmVariable7.4 km/hOvercast
10:03 AM22.2 °C21.1 °C93 %1024.7 hPa4.8 kmENE (70°)9.3 km/hOvercast
10:27 AM22.8 °C21.1 °C90 %1024.7 hPa6.4 kmENE (60°)11.1 km/hOvercast
10:51 AM22.8 °C21.1 °C90 %1024 hPa6.4 kmENE (70°)13 km/hOvercast
11:46 AM24 °C22 °C89 %1024.7 hPa8 kmENE (60°)9.3 km/hHaze
11:51 AM25 °C22.2 °C84 %1024 hPa9.7 kmVariable7.4 km/hHaze
12:51 PM26.1 °C22.2 °C79 %1024 hPa9.7 kmENE (70°)11.1 km/hHaze
1:51 PM26.7 °C21.7 °C74 %1024 hPa11.3 kmENE (60°)18.5 km/hMostly Cloudy
2:51 PM26.1 °C21.7 °C77 %1024 hPa11.3 kmENE (70°)13 km/hMostly Cloudy
3:51 PM25.6 °C22.2 °C81 %1023.7 hPa11.3 kmVariable5.6 km/hOvercast
4:51 PM25 °C21.7 °C82 %1024.4 hPa11.3 kmCalmMostly Cloudy
5:15 PM24.4 °C21.7 °C85 %1025.1 hPa9.7 kmENE (60°)7.4 km/hHaze
5:25 PM24.4 °C21.7 °C85 %1025.1 hPa11.3 kmEast (80°)7.4 km/hOvercast
5:41 PM25 °C21.7 °C82 %1025.1 hPa9.7 kmENE (70°)9.3 km/hHaze
5:51 PM24.4 °C22.2 °C87 %1024.4 hPa9.7 kmENE (60°)13 km/hOvercast
5:59 PM25 °C21.7 °C82 %1025.4 hPa11.3 kmVariable7.4 km/hOvercast
6:32 PM25 °C22.2 °C84 %1025.4 hPa12.9 kmEast (80°)5.6 km/hOvercast
6:51 PM25 °C22.2 °C84 %1024.4 hPa12.9 kmCalmOvercast
7:48 PM25 °C22 °C83 %1025.7 hPa12.9 kmVariable7.4 km/hOvercast
7:51 PM25 °C21.7 °C82 %1024.7 hPa12.9 kmCalmOvercast
8:33 PM25 °C22.2 °C84 %1025.7 hPa14.5 kmCalmMostly Cloudy
8:51 PM25 °C22.2 °C84 %1025.1 hPa14.5 kmVariable7.4 km/hMostly Cloudy
9:41 PM25 °C22.2 °C84 %1026.1 hPa14.5 kmCalmOvercast
9:51 PM24.4 °C22.2 °C87 %1025.1 hPa14.5 kmSSE (160°)11.1 km/hMostly Cloudy
10:09 PM24.4 °C22.2 °C87 %1026.1 hPa14.5 kmCalmMostly Cloudy
10:36 PM24.4 °C22.2 °C87 %1026.4 hPa14.5 kmCalmScattered Clouds
10:51 PM24.4 °C22.2 °C87 %1025.4 hPa14.5 kmCalmScattered Clouds
11:21 PM24.4 °C22.2 °C87 %1026.4 hPa14.5 kmESE (120°)7.4 km/hMostly Cloudy
11:51 PM24.4 °C22.2 °C87 %1025.4 hPa12.9 kmCalmMostly Cloudy
Hourly data recorded from KNYC, located 0 kilometers away from New York - Central Park, New York







STORIES FROM OUR PARTNERS